Flag for Belgium Weather past 2 weeks in Liège, Belgium

Now
72 °F

Passing clouds.


Feels Like: 77 °F
Forecast: 59 / 77 °F
Wind: 5 mph from Southeast

Location: Bierset

Current Time: Jul 31, 2014 at 2:03:02 PM

Latest Report: Jul 31, 2014 at 1:20 PM


Visibility: N/A

Pressure: 30.01 "Hg

Humidity: 53%

Dew point: 54 °F

Location of LiègeLocation

Historic Weather in Liège — Graph

°F

Liège temperature yesterday

Maximum temperature yesterday: 70 °F (at 4:50 PM)
Minimum temperature yesterday: 59 °F (at 11:20 PM)
Average temperature yesterday: 64 °F

Past Weeks' High & Low Weather Summary

 TemperatureHumidityPressure
High91 °F (Jul 18, 5:20 PM)100% (Jul 21, 1:50 AM)30.18 "Hg (Jul 21, 1:50 AM)
Low54 °F (Jul 31, 6:20 AM)27% (Jul 19, 1:20 PM)29.80 "Hg (Jul 19, 8:20 PM)
Average70 °F73%29.97 "Hg
* Reported Jul 16 12:20 PM — Jul 31 12:50 PM, Liège, Weather by CustomWeather, © 2014

Note: Actual official high and low records may vary slightly from our data, if they occured in-between our weather recording intervals... More about our weather records

Advertising

Liège weather history for previous 24 hours

 ConditionsComfort  
Time TempWeatherWind HumidityBarometerVisibility
12:50 PM
Jul 31
72 °FSunny.2 mph50%30.01 "Hg10 mi
12:20 PM70 °FPassing clouds.3 mph53%30.01 "HgN/A
11:50 AM68 °FSunny.3 mph53%30.01 "Hg10 mi
11:20 AM68 °FPassing clouds.5 mph56%30.04 "HgN/A
10:50 AM66 °FSunny.3 mph64%30.04 "Hg10 mi
10:20 AM66 °FSunny.No wind64%30.04 "Hg10 mi
9:50 AM63 °FPassing clouds.3 mph73%30.04 "HgN/A
9:20 AM61 °FPassing clouds.6 mph77%30.04 "HgN/A
8:50 AM59 °FSunny.3 mph82%30.04 "Hg10 mi
8:20 AM57 °FClear.5 mph88%30.04 "Hg5 mi
7:50 AM57 °FClear.5 mph88%30.04 "Hg4 mi
7:20 AM57 °FFog.3 mph88%30.04 "Hg3 mi
6:50 AM55 °FClear.1 mph88%30.04 "Hg5 mi
6:20 AM54 °FClear.3 mph88%30.04 "Hg4 mi
5:50 AM55 °FClear.1 mph88%30.04 "Hg10 mi
5:20 AM55 °FClear.1 mph88%30.01 "Hg10 mi
4:50 AM57 °FClear.1 mph82%30.01 "Hg10 mi
4:20 AM55 °FClear.2 mph88%30.04 "Hg10 mi
3:50 AM55 °FClear.1 mph88%30.04 "Hg10 mi
3:20 AM55 °FClear.1 mph88%30.04 "Hg10 mi
2:50 AM57 °FClear.2 mph88%30.04 "Hg10 mi
2:20 AM57 °FClear.3 mph88%30.04 "Hg10 mi
1:50 AM59 °FClear.2 mph82%30.04 "Hg10 mi
1:20 AM59 °FClear.2 mph82%30.04 "Hg10 mi
12:50 AM59 °FClear.2 mph82%30.04 "Hg10 mi
12:20 AM59 °FClear.2 mph82%30.01 "Hg10 mi
11:50 PM
Jul 30
59 °FClear.3 mph82%30.01 "Hg10 mi
11:20 PM59 °FClear.5 mph88%30.01 "Hg10 mi
10:50 PM61 °FPassing clouds.5 mph83%30.01 "HgN/A
10:20 PM61 °FSunny.6 mph83%30.01 "Hg10 mi
9:50 PM63 °FPassing clouds.5 mph77%30.01 "HgN/A
9:20 PM64 °FPassing clouds.6 mph78%29.98 "HgN/A
8:50 PM66 °FPassing clouds.7 mph73%29.98 "HgN/A
8:20 PM66 °FPassing clouds.8 mph73%29.98 "HgN/A
7:50 PM68 °FScattered clouds.7 mph69%29.98 "HgN/A
7:20 PM68 °FPassing clouds.8 mph69%29.98 "HgN/A
6:50 PM70 °FPassing clouds.8 mph69%29.95 "HgN/A
6:20 PM70 °FPassing clouds.6 mph64%29.95 "HgN/A
5:50 PM70 °FPassing clouds.6 mph60%29.95 "HgN/A
5:20 PM70 °FPassing clouds.6 mph64%29.98 "HgN/A
4:50 PM70 °FPassing clouds.6 mph64%29.98 "HgN/A
4:20 PM68 °FPassing clouds.6 mph69%29.98 "HgN/A
3:50 PM68 °FPassing clouds.7 mph69%29.98 "HgN/A
3:20 PM68 °FPartly sunny.8 mph69%29.98 "HgN/A
2:50 PM68 °FPassing clouds.9 mph69%29.98 "HgN/A
2:20 PM68 °FScattered clouds.9 mph69%29.95 "HgN/A
Weather by CustomWeather, © 2014

See weather overviewHow to use our weather pages